Location: Easthampton
(42.2676°N, 72.6690°W)
Time: 13:56:45
(UTC+00:00)

JY1SAT - Visible Passes

Search period start: 27 March 2023 00:00
Search period end: 06 April 2023 00:00
Orbit: 557 x 578 km, 97.6° (Epoch: 27 March)

Date Brightness Start Highest point End Pass type
(mag) Time Alt. Az. Time Alt. Az. Time Alt. Az.
27 Mar ? 02:13:01 18° NNW 02:13:01 18° NNW 02:14:06 10° NNW visible
28 Mar ? 02:14:02 19° NNW 02:14:02 19° NNW 02:15:12 10° NNW visible
29 Mar ? 02:15:02 20° NNW 02:15:02 20° NNW 02:16:18 10° NNW visible
30 Mar ? 02:16:02 21° NNW 02:16:02 21° NNW 02:17:24 10° NNW visible
31 Mar ? 02:17:01 21° NNW 02:17:01 21° NNW 02:18:28 10° NNW visible
01 Apr ? 02:17:59 22° NNW 02:17:59 22° NNW 02:19:31 10° NNW visible
02 Apr ? 02:18:55 23° NNW 02:18:55 23° NNW 02:20:34 10° NNW visible
03 Apr ? 02:19:52 25° NNW 02:19:52 25° NNW 02:21:36 10° NNW visible
04 Apr ? 00:44:44 10° NE 00:44:44 10° NE 00:44:56 10° NE visible
04 Apr ? 02:20:48 25° NNW 02:20:48 25° NNW 02:22:37 10° NNW visible
05 Apr ? 00:45:39 11° NE 00:45:39 11° NE 00:46:08 10° NE visible
05 Apr ? 02:21:43 27° NNW 02:21:43 27° NNW 02:23:37 10° NNW visible
